Henderson, KY

11:16 AM CDT on August 24, 2019 (GMT -0500)
Henderson City-County

Weather History for KEHR - June, 2019

Change the Weather History Date:

Friday, June 14, 2019

  Actual Average Record
Temperature  
Mean Temperature 62 °F -  
Max Temperature 77 °F 86 °F 96 °F (1936)
Min Temperature 48 °F 64 °F 44 °F (2014)
Degree Days  
Heating Degree Days 2    
Growing Degree Days 12 (Base 50)    
Moisture  
Dew Point 49 °F    
Average Humidity 60    
Maximum Humidity 97    
Minimum Humidity 36    
Precipitation  
Precipitation 0.00 in - - ()
Sea Level Pressure  
Sea Level Pressure 30.11 in    
Wind  
Wind Speed 4 mph (South)    
Max Wind Speed 13 mph    
Max Gust Speed 20 mph    
Visibility 10 miles    
Events      
Averages and records for this station are not official NWS values.
T = Trace of Precipitation, MM = Missing Value Source: NWS Daily Summary

Daily Weather History Graph

Daily Weather History Graph

Search for Another Location

Airport or City:

Astronomy

Jun. 14, 2019 Rise Set
Actual Time 5:28 AM CDT 8:13 PM CDT
Civil Twilight 4:56 AM CDT 8:45 PM CDT
Nautical Twilight 4:17 AM CDT 9:24 PM CDT
Astronomical Twilight 3:33 AM CDT 10:08 PM CDT
Moon 5:38 PM CDT (6/14) 3:42 AM CDT (6/14)
Length of Visible Light 15h 48m
Length of Day
14h 45m
Waxing Gibbous, 92% of the Moon is Illuminated
Jun 14
Waxing Gibbous
Jun 17
Full
Jun 25
Last Quarter
Jul 2
New
Jul 9
First Quarter

Hourly Weather History & Observations

Time (CDT) Temp. Dew Point Humidity Pressure Visibility Wind Dir Wind Speed Gust Speed Precip Events Conditions
12:56 AM 52.0 °F 48.9 °F 89% 30.12 in 10.0 mi SW 3.5 mph - N/A   Clear
1:56 AM 51.1 °F 48.0 °F 89% 30.13 in 10.0 mi SSW 3.5 mph - N/A   Clear
2:56 AM 50.0 °F 48.0 °F 93% 30.14 in 10.0 mi Calm Calm - N/A   Clear
3:56 AM 48.9 °F 48.0 °F 97% 30.14 in 10.0 mi Calm Calm - N/A   Clear
4:56 AM 48.9 °F 48.0 °F 97% 30.15 in 10.0 mi Calm Calm - N/A   Clear
5:56 AM 48.9 °F 46.9 °F 93% 30.17 in 10.0 mi Calm Calm - N/A   Clear
6:56 AM 55.0 °F 51.1 °F 86% 30.17 in 10.0 mi Calm Calm - N/A   Clear
7:56 AM 64.0 °F 53.1 °F 67% 30.18 in 10.0 mi South 3.5 mph - N/A   Clear
8:56 AM 69.1 °F 51.1 °F 53% 30.16 in 10.0 mi SE 6.9 mph - N/A   Clear
9:56 AM 72.0 °F 46.0 °F 40% 30.17 in 10.0 mi South 6.9 mph - N/A   Clear
10:56 AM 73.9 °F 48.9 °F 41% 30.16 in 10.0 mi South 8.1 mph - N/A   Clear
11:56 AM 75.0 °F 46.9 °F 37% 30.15 in 10.0 mi South 4.6 mph - N/A   Clear
12:56 PM 75.9 °F 48.0 °F 37% 30.12 in 10.0 mi SSW 10.4 mph - N/A   Clear
1:56 PM 75.9 °F 48.0 °F 37% 30.09 in 10.0 mi South 9.2 mph - N/A   Clear
2:56 PM 75.9 °F 46.9 °F 36% 30.06 in 10.0 mi SSW 12.7 mph 19.6 mph N/A   Clear
3:56 PM 77.0 °F 48.0 °F 36% 30.04 in 10.0 mi SSW 11.5 mph 19.6 mph N/A   Clear
4:56 PM 77.0 °F 48.0 °F 36% 30.03 in 10.0 mi South 10.4 mph - N/A   Clear
5:56 PM 75.0 °F 50.0 °F 41% 30.02 in 10.0 mi South 9.2 mph - N/A   Clear
6:56 PM 73.9 °F 52.0 °F 46% 30.02 in 10.0 mi SSW 6.9 mph - N/A   Scattered Clouds
7:56 PM 71.1 °F 55.0 °F 57% 30.02 in 10.0 mi SSE 5.8 mph - N/A   Clear
8:56 PM 71.1 °F 54.0 °F 55% 30.01 in 10.0 mi SE 4.6 mph - N/A   Clear